Wind_Speed
26 24 26 29 33 38 36 40 36 42 31 32 29 32 32 32 37 45 46 47 53 55 50 48 49 48 50 51 51 52 47 48 50 45 39 38 39 35 32 30 32 34 37 39
31 32 29 25 42 39 20 14 30 35 39 28 31 36 36 36 36 45 46 56 46 46 51 49 49 50 51 52 50 44 41 44 45 39 40 41 34 30 27 29 34 38 39 39
30 29 26 24 18 20 27 31 26 30 28 28 31 27 30 33 42 54 51 46 50 50 48 48 50 51 50 49 45 42 35 37 35 35 39 31 34 32 31 35 37 38 37 38
27 27 4 13 24 29 27 19 31 39 36 31 33 38 42 45 46 45 42 49 51 48 48 51 49 48 49 46 41 35 30 28 29 30 30 30 30 32 34 36 36 35 36 37
11 11 26 29 20 18 28 36 33 32 32 35 41 53 56 51 42 36 56 48 48 51 51 49 49 49 47 39 31 26 24 22 23 26 27 31 33 34 35 34 34 35 36 37
22 14 7 30 26 26 27 34 23 27 44 62 57 48 49 40 42 48 43 48 51 51 52 53 48 48 37 28 26 25 22 22 21 27 31 34 35 33 33 34 35 36 37 37
28 17 17 30 10 28 24 35 50 47 51 49 47 47 40 44 43 45 45 49 49 50 52 49 47 38 26 24 23 23 20 20 25 31 34 33 32 32 33 34 35 36 36 36
18 11 13 4 35 39 47 46 44 45 50 48 48 42 42 38 42 45 49 50 52 53 51 46 38 28 24 23 23 20 24 27 29 31 31 30 31 32 33 33 34 35 36 33
29 32 42 46 42 38 35 42 43 42 46 42 46 36 35 40 45 48 50 53 54 53 45 35 27 24 23 22 24 25 27 29 29 29 28 28 31 33 33 33 33 35 34 32
39 47 48 42 40 41 35 35 40 46 43 40 39 37 39 43 47 50 52 52 47 40 34 24 21 23 23 23 24 26 28 28 28 27 28 30 31 32 31 32 33 35 33 31
47 46 42 41 42 40 42 46 41 45 49 36 30 39 42 47 49 50 48 42 32 27 20 19 24 24 25 25 26 27 27 28 28 28 30 30 31 30 30 31 34 36 32 31
45 43 40 48 44 45 48 42 41 42 42 31 39 46 49 49 50 48 42 34 27 19 18 21 22 23 26 29 28 28 28 29 29 29 29 30 29 28 29 29 31 30 28 28
43 47 32 38 42 26 29 38 36 36 37 39 45 49 50 50 48 40 34 31 26 23 26 25 24 24 27 25 25 26 28 30 29 30 31 29 28 29 30 26 27 27 24 24
39 29 38 32 39 40 37 36 33 38 43 49 52 50 45 45 42 37 31 30 28 27 25 23 25 26 26 26 26 27 29 30 29 30 27 26 28 29 29 29 28 22 20 19
27 31 34 41 37 34 32 33 38 44 47 46 43 44 45 44 39 35 29 26 27 26 25 26 27 24 24 25 27 29 31 31 30 28 26 27 28 28 28 27 27 22 18 14
43 46 43 35 32 30 34 38 46 48 44 44 44 44 42 39 37 32 29 26 25 25 28 26 24 23 24 27 29 30 31 30 28 26 26 26 27 26 26 25 25 19 17 12
33 31 22 27 32 38 45 49 49 46 42 41 41 40 39 37 35 30 28 27 26 27 25 23 22 23 26 28 30 31 29 27 25 23 24 26 25 25 25 23 23 17 16 12
23 24 24 33 42 46 44 43 45 43 42 41 38 34 38 38 34 29 27 24 25 23 23 23 24 26 28 29 29 28 26 25 22 22 24 22 24 24 23 21 20 17 14 11
22 27 35 43 48 47 46 43 40 42 42 41 35 34 37 35 30 26 22 24 23 23 23 24 26 26 28 26 26 25 24 21 21 22 21 22 23 22 21 19 17 18 15 11
31 40 47 51 53 48 45 41 44 43 40 36 32 34 34 29 24 19 21 22 24 25 26 27 26 26 26 25 24 20 17 19 21 20 20 22 22 21 19 18 17 17 17 12
46 51 55 54 46 45 43 42 42 41 39 34 33 30 27 22 16 18 19 21 22 25 26 24 22 22 23 22 19 17 17 18 19 18 20 22 21 20 19 17 17 16 15 15
54 51 47 48 46 45 40 38 40 40 34 31 25 23 18 15 15 17 18 20 21 20 21 19 19 20 20 19 17 17 17 18 18 18 20 21 20 19 18 18 16 15 15 14
46 46 45 45 42 38 37 36 37 37 30 23 20 17 13 13 15 16 17 17 17 18 18 18 18 19 18 18 19 18 17 17 18 17 19 20 20 18 17 17 15 15 14 12
44 43 42 41 38 36 35 34 34 28 20 18 15 12 11 13 15 15 16 15 16 18 18 18 17 17 17 18 19 19 17 18 18 17 17 19 18 17 16 16 14 12 11 11
43 42 40 39 34 33 34 33 27 21 16 15 13 10 12 13 14 15 15 14 15 17 18 18 17 17 18 18 19 18 18 17 17 17 18 17 18 16 16 15 13 12 11 10
37 36 35 30 30 29 32 28 20 16 14 13 11 10 13 14 14 15 14 14 16 17 17 16 16 17 18 20 19 17 17 17 17 16 16 16 16 16 15 14 13 12 11 10
34 33 31 29 27 28 26 20 16 13 12 11 11 12 14 14 15 15 14 15 17 17 16 16 17 18 18 20 20 16 16 17 17 16 15 15 14 14 12 12 11 10 9 8
Wind_Direction
302 296 303 303 303 305 295 300 289 299 303 316 316 316 309 305 303 310 308 310 311 314 316 320 322 324 320 317 318 314 309 304 308 308 307 305 306 300 294 297 303 307 308 311
295 301 305 299 309 315 322 321 310 300 296 306 306 304 298 298 300 310 306 310 314 322 320 324 326 322 320 319 315 313 302 300 301 304 301 297 288 290 302 304 307 309 312 310
286 298 295 299 312 311 306 295 304 314 309 300 297 299 298 298 309 317 314 319 324 324 327 327 322 322 320 318 312 308 304 300 299 298 285 277 302 315 311 308 309 311 311 311
283 288 222 290 299 311 299 291 298 298 291 287 295 305 316 305 319 317 323 324 325 329 327 323 322 319 320 317 312 309 301 296 295 290 300 318 313 310 312 310 311 314 312 310
276 269 288 301 326 318 299 295 294 290 285 301 313 313 315 321 321 318 325 329 331 327 327 325 320 320 320 316 316 311 308 309 311 318 316 313 313 311 310 313 314 313 311 312
287 285 290 300 311 314 319 308 282 312 310 311 310 317 321 318 322 320 331 327 328 328 326 323 323 321 317 317 314 314 321 316 303 308 312 310 309 313 314 315 315 314 314 313
286 284 286 312 336 326 322 307 309 311 313 312 310 315 304 320 326 324 326 327 327 325 325 325 321 319 316 309 309 311 307 307 303 304 308 310 313 315 315 316 316 315 314 315
280 258 274 255 306 312 310 304 307 311 308 305 312 306 309 328 328 326 328 330 328 326 323 320 316 316 304 303 312 311 311 312 309 309 312 315 316 318 318 317 317 317 317 318
276 271 283 304 309 313 315 311 311 308 303 303 308 309 320 326 327 330 328 327 325 324 319 316 312 300 304 310 318 324 316 312 313 316 316 317 318 320 320 318 318 321 320 322
287 289 300 306 312 319 316 307 301 300 301 308 312 322 327 325 327 325 324 322 321 319 318 315 305 307 315 322 323 314 314 316 319 319 320 320 321 321 319 321 322 324 324 327
294 300 310 308 315 312 308 308 297 300 311 310 318 321 324 324 324 326 327 326 325 325 315 301 312 320 317 323 318 318 322 324 322 321 321 321 322 321 324 327 326 325 326 328
294 309 302 309 304 300 298 298 307 308 309 309 315 324 326 327 328 331 333 333 329 300 287 310 318 315 325 320 321 323 326 324 323 321 321 322 322 325 326 328 325 323 324 326
293 304 298 287 293 298 301 305 311 319 326 326 326 326 326 328 331 332 327 321 315 298 302 312 319 325 318 317 320 324 327 327 324 322 322 322 325 326 326 329 329 324 323 324
303 299 287 278 297 306 299 306 325 319 322 323 324 325 326 328 331 328 323 316 310 308 314 325 326 319 317 322 327 329 328 328 326 323 323 326 328 328 328 330 330 329 324 323
291 278 290 295 294 294 299 311 317 318 322 324 323 324 329 332 330 324 321 318 323 327 330 326 319 320 321 324 326 326 325 326 325 325 328 330 329 328 330 330 330 330 328 324
282 286 290 296 312 319 320 318 317 321 324 323 322 322 323 325 325 320 321 323 322 322 322 321 322 324 325 325 326 326 327 328 328 329 329 329 328 330 331 331 332 331 332 331
274 269 316 314 313 316 318 318 317 320 322 321 319 318 319 321 321 315 316 317 319 323 325 326 326 325 325 326 326 328 330 333 330 327 331 330 332 332 334 334 337 337 336 334
295 298 307 313 318 317 316 318 319 319 321 320 316 316 315 313 318 314 317 318 324 327 327 326 326 326 326 326 327 330 329 335 335 334 335 335 335 335 338 338 341 342 338 334
287 302 306 313 320 319 318 318 316 317 318 316 315 316 311 310 312 315 318 323 325 326 326 325 325 324 325 328 328 329 329 335 337 338 340 340 339 340 342 344 347 347 349 339
289 301 310 313 312 311 312 312 314 316 314 312 310 309 308 306 312 313 321 323 325 327 326 325 325 327 328 328 329 333 337 337 339 341 344 344 344 345 346 349 349 351 350 345
304 303 305 306 305 309 310 311 312 313 311 305 307 309 303 306 306 317 321 323 325 326 328 329 331 334 336 338 343 348 345 344 341 342 345 347 348 350 348 346 348 358 352 356
302 303 303 306 310 310 309 309 310 310 305 304 304 300 298 299 311 316 321 325 329 335 337 339 341 344 347 350 352 351 345 344 342 344 345 349 350 351 351 351 355 2 1 0
304 306 309 308 308 307 306 308 311 311 305 296 294 290 289 300 308 314 319 322 330 336 340 341 341 344 345 346 348 347 343 345 344 346 347 349 352 351 351 353 359 4 4 9
308 306 305 306 305 304 305 306 308 305 294 290 283 279 290 299 307 312 318 324 333 339 342 340 336 338 342 341 343 345 345 344 344 345 347 350 352 351 348 352 358 4 11 10
308 305 302 303 303 304 305 309 304 291 284 276 269 276 290 298 301 308 308 319 330 337 341 342 338 334 334 336 337 338 339 341 340 343 347 347 350 351 351 350 352 356 1 9
310 308 306 301 302 307 306 304 292 281 275 268 267 283 291 297 300 307 306 318 325 329 335 336 338 339 339 336 329 330 332 334 335 336 339 343 344 348 352 354 353 354 358 2
305 309 307 304 305 306 303 293 280 276 266 258 277 291 296 300 303 305 301 310 318 323 329 331 331 332 335 338 339 329 325 326 331 332 332 338 339 342 347 352 357 358 359 359
Height
3149 3149 3149 3146 3139 3130 3132 3129 3125 3110 3114 3110 3110 3101 3095 3090 3086 3082 3076 3070 3064 3057 3050 3045 3039 3031 3025 3017 3009 3000 2992 2985 2981 2977 2972 2968 2964 2962 2961 2957 2954 2950 2946 2942
3142 3141 3140 3137 3127 3123 3123 3121 3116 3111 3107 3108 3101 3094 3088 3084 3078 3075 3069 3062 3054 3048 3041 3034 3027 3021 3013 3004 2995 2988 2983 2977 2971 2967 2964 2961 2959 2957 2953 2949 2946 2941 2936 2931
3134 3135 3134 3132 3120 3119 3117 3116 3111 3105 3101 3094 3089 3083 3080 3076 3069 3064 3058 3052 3046 3038 3030 3023 3016 3007 3000 2992 2983 2977 2973 2969 2965 2962 2959 2954 2950 2947 2945 2941 2937 2932 2926 2920
3130 3129 3126 3122 3119 3115 3108 3106 3104 3097 3092 3087 3082 3078 3075 3070 3061 3054 3049 3043 3036 3029 3023 3015 3006 2998 2989 2981 2973 2967 2963 2960 2957 2954 2950 2947 2945 2942 2938 2933 2928 2922 2916 2911
3128 3122 3117 3111 3109 3109 3103 3097 3095 3089 3084 3080 3075 3067 3063 3056 3050 3044 3039 3031 3025 3018 3011 3003 2996 2988 2978 2970 2964 2959 2956 2954 2950 2947 2946 2942 2938 2934 2929 2923 2919 2913 2907 2901
3125 3120 3112 3105 3104 3101 3096 3088 3087 3083 3079 3071 3065 3058 3050 3045 3041 3035 3030 3023 3015 3007 3000 2992 2984 2976 2969 2963 2959 2955 2952 2950 2947 2943 2940 2936 2931 2926 2920 2915 2910 2904 2898 2892
3120 3114 3105 3100 3100 3096 3094 3090 3081 3074 3067 3061 3057 3052 3043 3037 3031 3026 3021 3014 3007 2999 2990 2982 2974 2967 2962 2958 2955 2952 2949 2946 2943 2939 2934 2928 2923 2918 2912 2907 2901 2895 2889 2883
3112 3107 3101 3097 3095 3096 3088 3077 3074 3065 3059 3052 3048 3041 3033 3029 3023 3016 3010 3003 2996 2988 2980 2973 2966 2960 2956 2954 2950 2947 2943 2940 2936 2931 2926 2921 2915 2910 2905 2899 2893 2887 2880 2875
3110 3096 3091 3091 3090 3082 3078 3071 3062 3056 3049 3043 3038 3032 3027 3022 3014 3007 3002 2994 2985 2977 2970 2964 2959 2956 2952 2948 2944 2941 2938 2934 2929 2924 2919 2914 2908 2903 2898 2892 2885 2878 2872 2866
3094 3086 3082 3080 3076 3073 3066 3060 3052 3046 3040 3035 3029 3024 3019 3015 3007 3001 2993 2984 2976 2966 2961 2956 2953 2951 2948 2943 2941 2937 2932 2927 2922 2917 2913 2908 2902 2896 2890 2884 2877 2870 2864 2859
3077 3076 3072 3069 3067 3061 3054 3049 3041 3036 3031 3027 3023 3018 3011 3004 2997 2989 2982 2973 2965 2959 2955 2951 2948 2945 2942 2939 2935 2930 2925 2920 2916 2911 2906 2901 2896 2890 2884 2877 2870 2862 2858 2853
3068 3069 3066 3058 3055 3051 3045 3038 3034 3028 3025 3020 3013 3010 3002 2994 2985 2977 2970 2964 2959 2955 2951 2948 2944 2940 2937 2933 2928 2923 2919 2914 2910 2905 2900 2895 2890 2885 2879 2873 2866 2859 2854 2849
3063 3062 3057 3049 3047 3041 3034 3030 3026 3021 3019 3014 3007 3000 2993 2983 2975 2969 2964 2959 2954 2950 2947 2942 2938 2935 2933 2928 2924 2919 2914 2909 2904 2899 2894 2889 2883 2878 2872 2869 2862 2855 2851 2846
3057 3051 3044 3041 3038 3033 3029 3024 3019 3016 3011 3005 2998 2991 2983 2975 2968 2963 2959 2953 2949 2945 2940 2937 2934 2930 2926 2922 2917 2913 2908 2904 2899 2893 2888 2883 2878 2872 2867 2861 2856 2853 2848 2842
3046 3040 3035 3033 3030 3026 3022 3016 3013 3010 3003 2995 2988 2982 2974 2966 2962 2958 2953 2948 2943 2939 2936 2933 2929 2925 2921 2917 2912 2907 2903 2898 2893 2887 2882 2878 2873 2867 2862 2857 2852 2848 2844 2840
3034 3032 3030 3027 3024 3019 3015 3010 3006 3000 2993 2986 2979 2973 2968 2962 2957 2953 2947 2943 2939 2936 2932 2928 2923 2920 2916 2912 2907 2902 2896 2892 2887 2882 2878 2873 2868 2863 2859 2854 2849 2844 2840 2837
3025 3023 3021 3018 3016 3012 3006 3001 2995 2990 2984 2978 2972 2967 2961 2956 2952 2947 2943 2938 2934 2930 2926 2923 2919 2915 2911 2906 2901 2897 2892 2887 2882 2878 2874 2869 2864 2860 2855 2851 2846 2842 2838 2835
3017 3016 3015 3012 3008 3003 2998 2993 2986 2981 2976 2970 2964 2959 2954 2949 2945 2941 2937 2933 2929 2926 2922 2918 2915 2910 2906 2901 2897 2892 2888 2883 2879 2875 2871 2866 2862 2857 2852 2848 2844 2840 2836 2833
3012 3010 3007 3003 2999 2993 2988 2983 2977 2972 2967 2961 2956 2951 2946 2942 2939 2935 2932 2928 2925 2922 2919 2914 2910 2906 2901 2897 2892 2888 2884 2880 2877 2872 2868 2864 2859 2855 2850 2846 2842 2838 2835 2832
3006 3002 2997 2992 2990 2985 2978 2974 2968 2962 2957 2952 2947 2943 2940 2936 2933 2931 2927 2924 2921 2917 2913 2909 2905 2901 2896 2892 2888 2885 2881 2878 2874 2870 2867 2862 2857 2853 2849 2845 2841 2838 2834 2831
2996 2990 2986 2983 2978 2975 2968 2963 2957 2952 2947 2943 2939 2936 2933 2930 2928 2926 2924 2921 2917 2913 2909 2904 2900 2897 2893 2889 2885 2882 2879 2876 2873 2869 2865 2861 2856 2852 2848 2844 2840 2837 2834 2830
2987 2981 2976 2972 2966 2961 2957 2953 2948 2942 2938 2935 2931 2929 2927 2925 2924 2922 2919 2917 2913 2910 2905 2901 2898 2894 2890 2887 2884 2881 2878 2875 2871 2868 2864 2860 2856 2852 2848 2844 2840 2837 2834 2831
2976 2970 2964 2960 2955 2950 2946 2942 2937 2932 2929 2926 2924 2923 2922 2921 2920 2918 2916 2913 2910 2906 2902 2899 2895 2892 2889 2886 2883 2880 2876 2873 2870 2867 2863 2859 2855 2851 2848 2845 2841 2838 2836 2833
2963 2958 2953 2948 2944 2940 2936 2932 2928 2924 2921 2920 2919 2918 2918 2917 2916 2914 2912 2910 2907 2903 2900 2896 2893 2890 2887 2884 2881 2878 2875 2872 2869 2866 2862 2859 2855 2851 2848 2845 2842 2839 2837 2835
2951 2946 2941 2937 2933 2930 2927 2923 2919 2917 2915 2914 2914 2914 2913 2912 2912 2910 2908 2906 2903 2900 2897 2894 2891 2888 2885 2882 2879 2876 2873 2870 2867 2864 2861 2858 2855 2851 2848 2845 2842 2840 2838 2836
2940 2935 2931 2927 2924 2920 2917 2914 2912 2910 2910 2909 2909 2910 2909 2908 2907 2906 2904 2902 2900 2897 2894 2891 2888 2885 2882 2879 2876 2873 2871 2868 2866 2863 2860 2857 2854 2851 2848 2845 2843 2840 2838 2837
2931 2926 2922 2919 2916 2913 2910 2907 2906 2906 2905 2905 2906 2906 2905 2904 2903 2901 2900 2898 2897 2894 2891 2888 2885 2882 2879 2876 2873 2870 2868 2866 2863 2861 2858 2856 2853 2850 2848 2846 2843 2841 2839 2838